Temp
21 22 21 20 21 21 21 20 18 19 21 22 23 22 22 22 21 20 20 19 19 18 16 14 13 12 11 10 8 6 5 5 5 4 5 3 3 3 2 2 1 0 -0 -0
18 20 20 19 20 21 21 21 21 21 21 23 23 21 20 20 20 20 19 19 19 18 17 15 13 12 11 9 7 6 5 5 5 4 4 4 2 2 1 1 0 0 -0 -1
15 17 16 13 17 19 20 21 21 19 21 22 21 21 20 19 19 19 18 17 17 17 16 15 14 12 11 9 7 6 5 4 3 4 3 2 2 1 1 1 0 -0 -1 -1
14 11 13 19 21 20 19 20 21 21 21 20 18 18 18 18 18 17 17 17 16 16 15 15 14 12 10 8 7 5 4 4 3 3 2 2 1 1 0 -0 -0 -1 -1 -1
11 14 17 18 20 19 18 18 19 19 19 19 18 17 18 17 16 15 15 15 15 15 14 13 12 11 9 7 6 5 3 2 2 1 1 1 0 -0 -1 -1 -1 -1 -1 -2
12 12 12 17 18 18 18 16 18 17 17 17 17 14 16 15 15 15 14 14 14 13 13 12 11 9 7 5 5 3 2 0 0 -1 0 0 -1 -1 -2 -2 -2 -2 -2 -3
12 11 14 19 17 16 15 14 16 16 16 16 15 15 15 14 14 13 14 13 13 12 11 10 9 7 5 4 3 -0 -2 -1 -1 -1 -0 -2 -3 -3 -3 -3 -3 -2 -3 -3
12 9 10 18 16 15 16 16 15 15 15 14 14 14 14 14 14 13 12 11 9 8 7 6 5 3 1 1 -2 -3 -3 -2 -1 -1 -1 -3 -3 -3 -3 -3 -3 -4 -4 -4
14 14 16 17 16 16 15 15 14 14 14 14 13 13 13 13 13 11 10 8 7 5 3 1 1 0 -0 -2 -3 -3 -2 -0 0 -1 -3 -3 -3 -3 -3 -4 -4 -4 -5 -5
15 18 18 17 16 16 14 13 13 13 13 12 12 11 11 11 10 9 7 5 3 1 1 0 -0 -0 -1 -2 -2 -2 -1 0 -3 -3 -3 -3 -3 -4 -4 -3 -4 -4 -5 -5
16 16 16 15 13 12 11 11 10 10 10 8 9 10 9 7 5 3 1 1 1 0 -1 -2 -1 -2 -2 -2 -1 -1 -2 -2 -2 -2 -2 -3 -4 -4 -4 -4 -5 -5 -5 -6
13 13 13 12 9 9 9 8 7 7 6 5 5 4 4 2 1 2 1 0 -0 -0 -0 -1 -2 -2 -2 -2 -2 -2 -2 -2 -2 -2 -3 -4 -4 -5 -5 -5 -5 -5 -6 -6
12 10 10 9 8 6 4 3 3 3 2 2 2 3 3 2 1 0 0 -0 -1 -2 -2 -3 -3 -1 -1 -1 -2 -2 -2 -2 -2 -3 -4 -5 -5 -5 -5 -5 -6 -5 -6 -6
8 9 8 8 6 4 2 1 2 2 1 1 0 0 -0 -1 -1 -1 -2 -2 -2 -2 -2 -2 -2 -2 -2 -2 -2 -2 -2 -3 -4 -4 -4 -4 -5 -5 -6 -6 -6 -6 -6 -6
7 7 6 4 2 2 1 0 -0 -1 -1 -2 -2 -1 -1 -1 -1 -1 -1 -2 -2 -1 -2 -2 -2 -2 -2 -2 -3 -3 -3 -3 -4 -4 -4 -4 -5 -5 -6 -6 -6 -6 -6 -6
4 4 3 2 1 1 1 0 -0 -0 -0 -1 -1 -1 -1 -1 -1 -2 -2 -2 -2 -2 -2 -2 -2 -2 -2 -2 -3 -3 -3 -3 -4 -4 -4 -4 -5 -6 -6 -6 -6 -6 -6 -6
2 1 1 1 1 1 1 0 -1 -1 -1 -1 -1 -1 -1 -1 -2 -2 -2 -2 -2 -2 -2 -2 -3 -3 -3 -3 -4 -4 -4 -4 -4 -4 -4 -4 -5 -6 -6 -6 -6 -6 -7 -6
2 1 1 1 1 0 -0 -1 -1 -1 -1 -2 -2 -2 -2 -2 -2 -3 -3 -2 -2 -2 -3 -4 -4 -4 -4 -5 -5 -5 -5 -5 -5 -5 -5 -5 -5 -6 -6 -6 -7 -7 -7 -7
1 0 0 0 -0 -1 -2 -2 -2 -2 -2 -2 -2 -2 -3 -3 -3 -3 -3 -3 -4 -5 -5 -6 -6 -6 -6 -6 -6 -7 -6 -6 -5 -5 -5 -6 -6 -6 -6 -7 -7 -7 -7 -7
0 -0 -1 -1 -2 -2 -2 -3 -3 -3 -3 -3 -3 -2 -3 -4 -4 -4 -5 -6 -6 -7 -7 -7 -8 -8 -8 -8 -8 -8 -8 -8 -8 -7 -7 -6 -6 -7 -7 -7 -7 -7 -7 -7
-1 -2 -1 -2 -2 -2 -2 -3 -3 -3 -3 -3 -3 -3 -4 -5 -5 -6 -7 -8 -8 -8 -8 -8 -9 -10 -10 -10 -10 -10 -9 -9 -8 -8 -7 -6 -7 -7 -7 -8 -7 -8 -8 -8
-2 -2 -2 -3 -3 -3 -3 -3 -3 -3 -4 -4 -4 -5 -5 -6 -7 -8 -9 -10 -10 -10 -10 -11 -12 -11 -11 -11 -11 -11 -10 -9 -8 -8 -8 -7 -7 -7 -8 -9 -9 -10 -10 -10
-2 -2 -3 -4 -4 -4 -4 -4 -4 -4 -5 -6 -6 -6 -7 -8 -9 -10 -11 -11 -12 -12 -12 -13 -12 -12 -12 -12 -13 -13 -12 -12 -10 -10 -10 -9 -9 -9 -10 -10 -11 -12 -12 -11
-3 -4 -4 -4 -4 -5 -6 -5 -6 -8 -7 -8 -9 -9 -9 -10 -11 -12 -12 -13 -13 -13 -14 -14 -13 -13 -13 -13 -14 -14 -14 -14 -13 -13 -13 -12 -12 -12 -12 -13 -13 -13 -12 -12
-4 -4 -4 -5 -5 -6 -7 -7 -8 -8 -8 -9 -10 -11 -11 -12 -13 -13 -14 -14 -15 -15 -16 -16 -16 -14 -14 -14 -15 -15 -16 -16 -15 -15 -15 -15 -15 -15 -15 -14 -14 -14 -13 -13
-5 -6 -5 -6 -6 -7 -7 -7 -8 -9 -9 -11 -12 -11 -13 -13 -14 -14 -15 -15 -16 -16 -17 -17 -18 -17 -17 -16 -17 -17 -17 -17 -17 -16 -16 -16 -16 -16 -16 -16 -16 -15 -15 -15
-6 -7 -7 -8 -8 -8 -8 -8 -9 -9 -12 -12 -13 -13 -14 -14 -14 -15 -16 -16 -17 -17 -18 -18 -18 -19 -19 -19 -19 -19 -19 -18 -18 -18 -18 -18 -18 -17 -17 -17 -17 -17 -17 -16
Height
1467 1462 1468 1470 1467 1466 1470 1471 1486 1480 1473 1464 1461 1465 1467 1468 1471 1475 1478 1479 1481 1485 1487 1489 1493 1499 1504 1506 1508 1510 1513 1516 1518 1518 1517 1519 1517 1517 1517 1516 1514 1513 1512 1510
1476 1468 1468 1474 1469 1467 1466 1464 1466 1466 1467 1461 1462 1465 1469 1471 1473 1474 1477 1479 1479 1482 1486 1487 1489 1493 1498 1500 1502 1506 1511 1513 1514 1514 1516 1512 1512 1513 1512 1512 1511 1510 1509 1507
1488 1481 1482 1493 1474 1468 1465 1462 1463 1472 1465 1462 1464 1464 1468 1471 1474 1475 1477 1478 1479 1481 1483 1485 1487 1489 1492 1495 1499 1502 1507 1510 1510 1511 1511 1511 1508 1510 1509 1507 1507 1505 1502 1501
1490 1499 1503 1467 1458 1460 1463 1461 1459 1459 1462 1465 1469 1471 1471 1473 1474 1476 1477 1478 1479 1480 1481 1482 1484 1486 1489 1492 1495 1500 1505 1508 1511 1509 1507 1508 1505 1504 1503 1503 1502 1500 1499 1496
1500 1490 1474 1465 1460 1465 1467 1469 1466 1468 1470 1471 1473 1475 1472 1471 1475 1477 1478 1479 1479 1478 1479 1480 1482 1483 1486 1489 1494 1498 1502 1507 1506 1509 1508 1507 1503 1501 1499 1496 1495 1494 1492 1492
1492 1494 1497 1468 1468 1468 1468 1478 1472 1475 1477 1477 1475 1480 1476 1477 1478 1478 1478 1477 1477 1477 1477 1479 1479 1480 1483 1487 1491 1495 1497 1500 1502 1505 1504 1503 1499 1496 1494 1493 1490 1489 1488 1487
1490 1495 1482 1462 1468 1470 1480 1484 1476 1478 1478 1478 1478 1478 1478 1477 1477 1477 1476 1476 1476 1477 1477 1478 1480 1481 1484 1487 1491 1496 1495 1497 1502 1501 1497 1494 1492 1491 1489 1487 1486 1485 1482 1481
1484 1500 1498 1467 1470 1477 1475 1475 1476 1477 1477 1478 1478 1477 1477 1476 1476 1475 1476 1474 1475 1473 1475 1476 1477 1479 1481 1486 1488 1490 1496 1498 1498 1497 1495 1492 1488 1486 1485 1483 1481 1479 1477 1475
1472 1474 1467 1468 1470 1472 1474 1476 1477 1477 1477 1476 1476 1476 1475 1474 1474 1473 1476 1476 1474 1474 1474 1475 1478 1480 1483 1486 1490 1493 1493 1493 1491 1488 1487 1487 1485 1482 1480 1477 1475 1473 1471 1469
1465 1460 1462 1465 1468 1470 1473 1475 1477 1477 1476 1475 1475 1475 1475 1473 1472 1474 1474 1475 1475 1474 1477 1480 1482 1484 1486 1489 1489 1491 1490 1488 1486 1485 1484 1481 1479 1476 1474 1473 1471 1469 1467 1465
1461 1462 1464 1466 1469 1472 1474 1475 1476 1477 1476 1476 1475 1475 1473 1472 1472 1473 1473 1474 1477 1479 1481 1484 1486 1486 1486 1486 1486 1485 1485 1484 1483 1481 1478 1476 1473 1472 1470 1468 1466 1463 1462 1461
1465 1466 1467 1470 1473 1474 1475 1477 1477 1477 1476 1475 1475 1475 1473 1473 1474 1476 1477 1478 1480 1482 1482 1483 1483 1484 1484 1484 1483 1482 1482 1480 1478 1476 1473 1471 1469 1467 1465 1461 1459 1458 1457 1455
1463 1468 1470 1472 1474 1475 1475 1477 1477 1477 1477 1477 1477 1477 1476 1477 1478 1479 1481 1482 1483 1483 1484 1485 1485 1484 1483 1482 1480 1479 1478 1476 1474 1472 1470 1467 1465 1463 1457 1455 1453 1451 1449 1448
1465 1467 1470 1472 1475 1476 1476 1477 1477 1478 1479 1480 1480 1480 1480 1481 1483 1484 1484 1485 1486 1486 1485 1484 1483 1481 1480 1478 1476 1474 1473 1471 1469 1467 1465 1462 1460 1457 1454 1450 1445 1443 1442 1441
1466 1467 1468 1471 1474 1476 1478 1479 1480 1482 1483 1484 1484 1484 1485 1486 1487 1487 1487 1486 1485 1484 1484 1483 1481 1479 1478 1476 1473 1471 1469 1465 1463 1460 1458 1455 1453 1450 1447 1444 1440 1437 1435 1434
1467 1469 1471 1473 1476 1478 1480 1482 1484 1485 1487 1487 1487 1488 1488 1488 1488 1487 1487 1485 1484 1483 1482 1479 1477 1475 1473 1470 1468 1466 1463 1460 1457 1454 1451 1448 1445 1442 1439 1436 1433 1431 1429 1427
1466 1471 1473 1475 1478 1481 1482 1484 1484 1486 1487 1487 1487 1487 1487 1486 1486 1485 1485 1483 1482 1480 1479 1475 1472 1470 1468 1465 1462 1459 1456 1453 1449 1446 1442 1440 1438 1435 1432 1429 1426 1424 1421 1420
1466 1470 1474 1477 1479 1481 1483 1485 1486 1486 1487 1487 1487 1487 1486 1485 1484 1484 1482 1480 1479 1477 1475 1472 1468 1466 1463 1460 1458 1453 1448 1444 1440 1437 1433 1431 1428 1426 1424 1421 1419 1416 1414 1413
1470 1473 1476 1479 1481 1482 1484 1485 1486 1486 1487 1487 1487 1486 1485 1485 1483 1482 1479 1477 1475 1472 1469 1467 1464 1461 1456 1453 1450 1445 1440 1434 1431 1427 1424 1421 1419 1417 1415 1413 1411 1409 1407 1406
1473 1476 1477 1479 1481 1482 1484 1485 1487 1487 1487 1487 1486 1485 1484 1482 1480 1478 1476 1474 1474 1469 1465 1461 1457 1454 1450 1446 1441 1436 1432 1426 1422 1418 1414 1406 1407 1408 1406 1405 1403 1402 1400 1399
1475 1477 1478 1480 1482 1484 1485 1486 1487 1486 1486 1485 1484 1483 1481 1479 1476 1475 1473 1470 1467 1464 1460 1456 1452 1448 1442 1438 1433 1428 1424 1419 1414 1410 1406 1403 1400 1400 1399 1399 1397 1396 1395 1393
1475 1477 1479 1481 1483 1484 1485 1485 1485 1485 1484 1483 1482 1480 1477 1475 1473 1472 1471 1468 1463 1458 1454 1450 1447 1440 1437 1432 1428 1423 1418 1411 1407 1403 1399 1395 1393 1392 1392 1392 1391 1390 1389 1388
1476 1478 1480 1482 1483 1483 1484 1483 1483 1483 1482 1480 1477 1475 1474 1473 1471 1467 1464 1462 1458 1454 1450 1446 1441 1436 1431 1426 1422 1417 1413 1408 1404 1399 1393 1389 1386 1384 1385 1386 1385 1384 1384 1382
1477 1479 1480 1481 1482 1483 1483 1482 1482 1482 1480 1478 1476 1473 1472 1470 1468 1466 1462 1459 1455 1450 1446 1442 1437 1432 1428 1422 1418 1413 1410 1405 1401 1397 1393 1390 1387 1385 1383 1382 1381 1379 1378 1377
1476 1478 1479 1481 1482 1482 1482 1481 1481 1479 1477 1476 1474 1472 1470 1468 1466 1462 1459 1455 1451 1447 1443 1439 1434 1429 1425 1420 1416 1412 1408 1404 1399 1395 1391 1388 1386 1383 1380 1378 1377 1375 1373 1371
1477 1477 1477 1478 1479 1480 1479 1479 1477 1476 1474 1473 1471 1469 1467 1465 1462 1459 1456 1452 1448 1444 1440 1436 1432 1427 1422 1419 1415 1411 1407 1403 1398 1394 1391 1387 1384 1381 1378 1375 1373 1371 1369 1366
1474 1476 1478 1479 1477 1477 1476 1475 1474 1473 1472 1469 1467 1465 1465 1462 1459 1455 1452 1448 1445 1441 1438 1434 1430 1426 1421 1417 1413 1409 1405 1401 1397 1393 1389 1386 1382 1379 1375 1373 1370 1367 1364 1362
Wind_Speed
14 16 1 10 8 8 12 11 10 10 13 11 10 9 13 3 5 9 12 16 21 21 24 27 27 26 26 29 27 25 20 14 15 11 15 17 16 15 15 17 18 20 18 16
8 9 10 12 13 12 14 13 12 15 13 10 10 6 9 11 9 8 8 15 13 17 17 20 25 27 27 27 25 24 19 16 18 17 16 14 13 16 17 16 16 17 17 18
2 6 7 6 10 16 15 14 11 11 9 8 11 11 10 6 8 7 8 11 12 12 16 20 23 24 27 25 24 22 16 17 12 15 16 12 13 11 14 17 18 19 19 18
0 2 1 8 4 5 5 7 9 9 10 13 15 14 10 10 8 7 9 7 10 13 15 16 17 19 23 19 21 18 14 14 13 10 8 13 14 16 14 16 18 18 19 18
2 4 7 11 1 2 2 3 11 10 10 11 11 12 8 7 5 5 8 12 13 12 11 11 12 14 16 19 14 12 10 13 10 10 11 13 16 12 16 18 18 19 19 20
3 2 4 0 5 3 2 2 9 9 8 10 13 4 4 11 9 9 12 12 11 10 10 9 12 14 14 12 12 13 10 4 7 12 13 18 13 18 19 18 17 17 19 16
3 2 6 2 5 1 2 3 4 6 9 10 6 11 11 10 13 13 13 11 7 3 1 6 7 10 14 15 9 2 3 1 7 14 16 14 17 17 17 16 17 20 24 24
2 2 6 6 6 1 4 5 9 8 10 10 10 13 15 15 16 8 10 3 6 7 9 10 15 13 11 11 7 5 2 10 12 15 17 14 17 17 17 19 17 19 22 24
7 4 5 6 5 3 4 4 6 9 11 13 14 14 15 15 14 4 4 8 7 11 13 11 11 9 8 5 3 5 6 11 15 15 14 14 16 18 21 17 22 22 21 22
2 3 5 5 3 1 7 9 10 11 12 12 12 12 14 13 7 8 10 14 12 10 7 3 4 2 4 4 0 6 10 15 14 13 14 18 19 14 16 19 24 23 19 20
5 7 5 10 13 10 9 8 8 10 10 12 11 11 8 12 14 15 14 12 7 4 6 6 4 1 1 2 8 13 12 12 13 16 17 17 17 14 17 19 20 23 22 22
1 9 3 11 11 9 11 11 11 10 11 13 14 15 11 14 9 6 5 2 1 2 2 2 0 2 7 10 11 12 13 14 15 16 17 16 15 20 24 22 21 20 22 22
4 4 3 10 12 12 12 11 11 11 11 10 10 7 7 7 7 7 8 7 3 3 4 4 8 10 12 12 14 14 14 16 16 16 16 17 20 24 25 24 25 24 24 22
4 2 11 8 12 13 11 13 12 13 14 16 17 17 16 14 10 7 7 6 5 5 7 10 13 14 16 15 16 17 20 20 18 19 17 24 26 22 23 25 27 26 22 23
7 10 17 17 14 13 13 13 16 16 14 14 13 14 13 11 8 6 5 7 9 11 11 12 14 17 15 15 18 22 22 23 24 23 26 30 29 25 25 28 25 27 26 27
14 14 13 14 14 14 14 13 13 12 11 10 7 6 6 5 4 4 6 9 13 15 18 19 19 19 20 21 22 24 25 27 27 28 29 33 30 26 32 30 30 25 26 28
13 12 13 15 15 13 13 12 11 10 8 4 6 7 7 7 6 5 9 12 15 18 21 23 21 19 19 21 21 24 28 31 32 32 33 32 31 32 30 30 31 28 27 26
10 15 15 15 14 12 9 8 6 5 6 7 7 8 9 10 12 13 15 18 20 21 19 14 17 20 22 25 28 31 34 35 35 33 32 32 30 27 27 29 27 29 27 24
18 18 15 13 11 10 9 7 8 6 7 8 8 10 12 13 15 18 21 23 21 19 19 24 27 31 34 34 33 34 32 30 33 35 36 37 33 26 24 25 26 26 25 22
16 14 12 12 11 8 9 10 6 4 6 8 10 12 15 17 19 21 22 19 14 18 24 28 32 34 31 31 33 35 36 37 38 39 36 36 29 23 19 22 22 22 21 19
13 11 10 10 9 8 7 7 4 5 8 11 13 15 17 18 19 20 20 20 17 24 30 33 31 28 29 34 37 35 36 35 35 35 30 27 23 20 18 16 13 11 11 12
9 10 10 9 7 7 5 4 5 7 9 12 15 18 20 20 20 20 16 17 26 30 31 30 26 30 34 35 32 32 31 28 29 32 32 31 30 21 18 17 16 17 19 19
9 10 10 10 7 4 3 5 7 10 13 15 18 21 21 19 18 21 21 24 25 26 26 22 28 32 33 29 26 26 26 29 22 17 14 10 5 7 10 12 13 13 15 17
10 9 7 6 4 3 2 6 7 9 13 12 14 18 19 19 19 16 21 22 24 24 23 23 28 29 29 27 26 25 22 23 23 23 21 16 13 11 11 11 12 14 16 16
9 7 6 6 5 2 2 6 5 8 12 13 14 15 16 15 18 21 20 21 22 22 22 22 25 27 27 25 24 24 23 22 24 22 18 16 15 13 13 14 16 16 16 16
9 6 4 4 2 2 5 8 10 11 13 12 13 15 13 16 19 21 18 19 21 22 22 22 22 25 26 25 22 22 22 22 23 22 20 18 17 16 17 17 16 16 16 17
8 8 5 2 4 6 9 11 11 12 12 15 18 14 12 17 18 20 19 18 20 21 22 22 20 21 24 23 22 21 21 21 20 22 21 20 18 18 18 18 18 18 18 18
Wind_Direction
267 276 250 301 289 247 242 229 230 252 260 285 338 19 350 67 197 216 268 233 221 226 214 207 206 212 215 212 212 217 227 231 220 228 233 258 260 273 272 270 266 271 284 285
292 295 290 271 277 276 276 266 252 261 268 290 343 51 3 354 329 300 287 278 245 233 241 221 215 213 213 211 215 220 232 228 230 247 239 251 264 270 276 281 280 283 284 283
256 349 346 319 243 249 260 260 265 266 279 310 315 333 37 2 324 294 278 304 294 267 249 246 242 221 215 211 215 228 237 229 236 241 260 264 285 281 276 275 280 280 282 282
104 307 277 245 23 352 344 310 297 314 20 17 41 18 349 310 295 314 331 295 286 284 271 253 244 238 209 208 216 225 231 230 255 238 267 273 265 286 292 286 287 288 281 281
146 220 288 309 278 17 41 350 38 40 23 12 19 347 12 68 51 13 344 328 308 293 282 256 230 226 208 200 208 206 224 235 268 283 276 278 294 304 289 283 281 280 279 282
170 220 223 89 98 64 334 189 58 34 14 349 342 340 25 24 7 327 319 315 306 294 267 241 215 207 182 183 190 190 196 209 249 283 286 303 295 284 289 288 287 285 273 268
149 234 293 59 113 100 222 78 52 7 353 351 334 331 341 332 327 329 327 314 317 296 185 150 167 166 161 170 173 190 55 343 281 307 294 289 286 288 291 292 285 281 281 280
147 149 266 135 119 158 59 359 2 346 339 332 319 318 313 312 319 326 333 25 79 119 126 141 138 143 139 139 120 102 6 308 300 287 294 294 285 301 288 294 287 288 284 285
172 205 157 178 46 3 14 340 329 333 335 331 326 323 324 320 322 349 37 84 123 147 150 147 152 143 131 115 37 359 323 296 289 282 279 285 284 280 289 291 288 301 280 285
63 275 186 174 292 26 58 20 347 332 332 343 337 344 329 337 57 84 122 111 122 137 138 128 124 153 81 37 4 293 287 280 296 305 295 283 287 294 302 296 294 302 285 284
213 257 341 75 52 40 22 24 22 8 18 25 11 4 44 80 98 110 119 136 126 115 114 100 57 343 255 302 264 267 287 295 290 287 293 304 299 299 285 279 285 292 290 285
203 78 32 45 59 51 63 51 46 46 53 45 61 72 94 99 103 104 102 107 90 64 76 218 226 297 274 282 298 297 298 300 300 309 310 309 312 294 295 302 298 290 285 284
71 66 60 93 79 83 87 72 67 71 71 66 60 62 57 55 46 57 77 86 77 47 44 344 291 291 303 299 293 293 297 305 309 309 307 304 301 307 305 306 299 295 288 286
54 28 97 101 105 94 85 82 76 76 77 77 80 81 81 87 85 67 54 45 10 319 305 313 313 310 311 309 304 305 307 308 306 302 294 297 308 302 299 305 305 304 298 300
83 87 110 109 99 95 96 97 92 88 86 80 74 69 61 56 49 33 359 331 333 335 330 322 307 307 304 287 284 292 296 297 301 295 296 300 299 305 303 307 308 307 298 300
101 101 104 104 105 106 105 100 96 95 90 86 80 65 36 18 353 349 3 314 324 328 325 321 318 317 309 303 292 286 283 283 284 287 288 295 295 291 303 298 294 298 305 301
126 115 121 120 120 118 107 98 94 84 79 53 28 30 29 26 34 342 332 330 329 331 331 333 333 330 320 315 310 299 292 289 290 289 283 295 296 296 297 296 292 286 300 302
141 126 129 128 126 121 98 91 96 86 63 47 34 26 20 12 5 351 339 332 329 327 336 328 314 311 310 308 305 304 303 299 297 289 290 286 290 292 294 296 294 291 297 299
124 124 120 114 113 111 111 100 86 67 62 46 32 20 7 355 343 338 335 335 340 344 323 313 310 309 306 305 302 300 299 304 308 292 289 281 277 285 293 295 300 298 294 296
123 119 119 128 133 127 113 112 109 77 49 20 6 355 351 349 344 344 345 351 352 324 311 313 317 319 320 314 308 306 307 304 299 289 302 261 266 286 290 298 305 302 291 294
125 130 125 122 119 116 113 111 90 40 15 357 350 349 349 348 342 343 340 347 327 313 314 319 328 331 315 315 319 321 315 307 305 307 302 278 294 277 285 295 303 303 302 294
143 136 133 122 123 126 114 67 25 3 353 347 343 343 345 345 343 340 348 324 315 323 328 337 332 317 320 322 324 320 327 328 313 311 303 291 277 261 270 289 295 294 297 299
146 146 145 149 144 123 49 16 352 343 348 351 342 342 344 345 337 341 335 328 329 329 337 333 319 325 330 331 325 323 323 317 330 348 2 6 350 290 290 293 291 298 296 296
136 143 155 146 122 103 52 348 11 343 338 347 337 333 336 339 335 330 321 327 330 338 341 338 337 342 343 342 340 337 339 328 328 325 326 322 321 311 303 299 295 293 294 300
164 148 138 107 98 53 343 333 350 328 328 338 330 323 336 334 328 322 329 330 333 336 340 339 339 340 345 347 346 344 343 336 335 336 332 326 321 322 310 301 301 303 305 305
132 149 167 171 191 275 310 330 336 328 327 327 319 326 337 325 319 322 328 328 331 333 334 336 337 336 337 342 344 343 344 343 340 342 339 335 332 323 320 321 319 318 316 315
161 129 118 118 306 321 325 333 327 328 328 314 317 337 331 314 320 321 323 330 331 330 330 333 337 336 333 338 338 339 339 342 342 339 341 340 336 335 332 331 329 325 324 322